Weather History for Boone, NC

Change the Weather History Date:

Tuesday, June 10, 2014

  Actual Average (KGEV) Record (KGEV)
Temperature  
Mean Temperature 71 °F -  
Max Temperature 82 °F 76 °F 86 °F (1993)
Min Temperature 60 °F 53 °F 34 °F (1988)
Cooling Degree Days 6    
Growing Degree Days 21 (Base 50)    
Moisture  
Dew Point 58 °F    
Average Humidity 70    
Maximum Humidity 100    
Minimum Humidity 44    
Precipitation  
Precipitation 0.01 in - - ()
Sea Level Pressure  
Sea Level Pressure 30.05 in    
Wind  
Wind Speed 5 mph (West)    
Max Wind Speed 15 mph    
Max Gust Speed 23 mph    
Visibility 10 miles    
Events Rain    
Averages and records for this station are not official NWS values.
T = Trace of Precipitation, MM = Missing Value Source: NWS Daily Summary

Daily Weather History Graph

Daily Weather History Graph

Search for Another Location

Airport:

Trip Planner

Search our weather history database for the weather conditions in past years. The results will help you decide how hot, cold, wet, or windy it might be!

Date:

Astronomy

Jun. 10, 2014 Rise Set
Actual Time 6:08 AM EDT 8:43 PM EDT
Civil Twilight 5:38 AM EDT 9:13 PM EDT
Nautical Twilight 5:01 AM EDT 9:51 PM EDT
Astronomical Twilight 4:19 AM EDT 10:33 PM EDT
Moon 6:11 PM EDT (6/10) 4:08 AM EDT (6/10)
Length of Visible Light 15h 35m
Length of Day
14h 34m
Waxing Gibbous, 92% of the Moon is Illuminated
Jun 10
Waxing Gibbous
Jun 13
Full
Jun 19
Last Quarter
Jun 27
New
Jul 5
First Quarter

Hourly Weather History & Observations

Time (EDT) Temp. Heat Index Dew Point Humidity Pressure Visibility Wind Dir Wind Speed Gust Speed Precip Events Conditions
12:15 AM 62.6 °F - 62.1 °F 98% 30.04 in 10.0 mi Calm Calm - N/A   Clear
12:35 AM 62.8 °F - 62.1 °F 97% 30.04 in 10.0 mi Calm Calm - N/A   Clear
12:55 AM 62.2 °F - 61.7 °F 98% 30.04 in 10.0 mi Calm Calm - N/A   Clear
1:15 AM 63.5 °F - 61.7 °F 94% 30.04 in 10.0 mi Calm Calm - N/A   Clear
1:35 AM 61.7 °F - 61.2 °F 98% 30.04 in 10.0 mi Calm Calm - N/A   Clear
1:55 AM 61.0 °F - 61.0 °F 100% 30.04 in 7.0 mi Calm Calm - N/A   Clear
2:15 AM 60.3 °F - 60.3 °F 100% 30.04 in 7.0 mi Calm Calm - N/A   Clear
2:35 AM 61.5 °F - 61.0 °F 98% 30.04 in 10.0 mi Calm Calm - N/A   Clear
2:55 AM 60.3 °F - 59.9 °F 99% 30.03 in 10.0 mi Calm Calm - N/A   Clear
3:15 AM 61.7 °F - 61.0 °F 97% 30.03 in 10.0 mi WNW 3.5 mph - N/A   Clear
3:35 AM 60.8 °F - 60.4 °F 99% 30.03 in 10.0 mi Calm Calm - N/A   Clear
3:55 AM 60.8 °F - 60.3 °F 98% 30.04 in 10.0 mi Calm Calm - N/A   Clear
4:15 AM 61.2 °F - 59.9 °F 96% 30.04 in 10.0 mi WNW 3.5 mph - N/A   Clear
4:35 AM 61.2 °F - 59.9 °F 96% 30.04 in 10.0 mi Calm Calm - N/A   Clear
5:15 AM 61.0 °F - 59.4 °F 94% 30.04 in 10.0 mi West 4.6 mph - N/A   Clear
5:35 AM 62.6 °F - 60.3 °F 92% 30.04 in 10.0 mi WNW 9.2 mph - N/A   Clear
5:55 AM 63.1 °F - 59.5 °F 88% 30.03 in 10.0 mi WNW 15.0 mph 19.6 mph N/A   Clear
6:15 AM 63.9 °F - 56.7 °F 77% 30.04 in 10.0 mi WNW 15.0 mph 23.0 mph N/A   Clear
6:35 AM 64.2 °F - 56.5 °F 76% 30.04 in 10.0 mi West 11.5 mph 17.3 mph N/A   Clear
6:55 AM 64.0 °F - 56.7 °F 77% 30.02 in 10.0 mi WNW 13.8 mph - N/A   Clear
7:15 AM 64.0 °F - 57.2 °F 78% 30.02 in 10.0 mi West 9.2 mph - N/A   Clear
7:35 AM 64.2 °F - 57.2 °F 78% 30.03 in 10.0 mi West 8.1 mph - N/A   Clear
7:55 AM 64.8 °F - 56.8 °F 75% 30.04 in 10.0 mi West 9.2 mph - N/A   Clear
8:15 AM 65.8 °F - 56.3 °F 71% 30.04 in 10.0 mi West 9.2 mph 16.1 mph N/A   Clear
8:35 AM 67.6 °F - 55.9 °F 66% 30.04 in 10.0 mi WNW 11.5 mph - N/A   Clear
8:55 AM 69.1 °F - 55.8 °F 62% 30.05 in 10.0 mi WNW 10.4 mph - N/A   Clear
9:15 AM 70.9 °F - 55.0 °F 57% 30.05 in 10.0 mi West 13.8 mph 17.3 mph N/A   Clear
9:35 AM 71.8 °F - 54.5 °F 54% 30.05 in 10.0 mi WNW 10.4 mph 18.4 mph N/A   Clear
9:55 AM 73.0 °F - 54.7 °F 52% 30.06 in 10.0 mi WNW 6.9 mph - N/A   Clear
10:15 AM 74.5 °F - 54.9 °F 50% 30.06 in 10.0 mi WNW 11.5 mph 16.1 mph N/A   Clear
10:35 AM 76.3 °F - 55.0 °F 48% 30.07 in 10.0 mi WNW 13.8 mph 19.6 mph N/A   Clear
10:55 AM 76.5 °F - 54.9 °F 47% 30.07 in 10.0 mi WNW 11.5 mph 19.6 mph N/A   Clear
11:15 AM 77.5 °F - 55.2 °F 46% 30.07 in 10.0 mi West 9.2 mph - N/A   Clear
11:35 AM 77.5 °F - 55.6 °F 47% 30.07 in 10.0 mi West 8.1 mph 18.4 mph N/A   Clear
11:55 AM 77.2 °F - 55.8 °F 47% 30.08 in 10.0 mi West 13.8 mph - N/A   Clear
12:15 PM 78.1 °F - 55.6 °F 46% 30.08 in 10.0 mi West 6.9 mph - N/A   Clear
12:35 PM 79.0 °F - 55.4 °F 44% 30.08 in 10.0 mi West 9.2 mph - N/A   Clear
12:55 PM 78.6 °F - 55.2 °F 44% 30.08 in 10.0 mi West 8.1 mph - N/A   Clear
1:15 PM 79.2 °F - 55.9 °F 45% 30.07 in 10.0 mi WSW 9.2 mph - N/A   Clear
1:55 PM 78.4 °F - 56.8 °F 47% 30.07 in 10.0 mi Calm Calm - N/A   Clear
2:15 PM 78.3 °F - 61.9 °F 57% 30.06 in 10.0 mi SSW 5.8 mph - N/A   Clear
2:35 PM 81.5 °F 82.2 °F 61.2 °F 50% 30.06 in 10.0 mi South 3.5 mph - N/A   Clear
3:55 PM 82.6 °F 83.2 °F 61.9 °F 49% 30.04 in 10.0 mi SSE 8.1 mph - N/A   Clear
4:35 PM 80.4 °F 81.1 °F 59.7 °F 49% 30.04 in 10.0 mi WSW 5.8 mph - N/A   Clear
4:55 PM 81.7 °F 82.2 °F 60.4 °F 48% 30.04 in 10.0 mi South 6.9 mph 16.1 mph N/A   Clear
5:15 PM 80.4 °F 81.4 °F 61.2 °F 52% 30.03 in 10.0 mi Calm Calm - N/A   Clear
5:55 PM 79.7 °F - 59.5 °F 50% 30.04 in 10.0 mi SSW 9.2 mph 21.9 mph N/A   Clear
6:15 PM 79.7 °F - 59.9 °F 51% 30.04 in 10.0 mi South 5.8 mph 17.3 mph N/A   Clear
6:35 PM 78.8 °F - 59.9 °F 52% 30.03 in 10.0 mi SSE 6.9 mph - N/A   Clear
6:55 PM 78.1 °F - 58.5 °F 51% 30.03 in 10.0 mi South 8.1 mph - N/A   Clear
7:15 PM 76.3 °F - 59.0 °F 55% 30.03 in 10.0 mi SSE 5.8 mph - N/A   Clear
7:55 PM 74.7 °F - 58.3 °F 57% 30.03 in 10.0 mi SSE 5.8 mph 17.3 mph N/A   Clear
8:15 PM 73.9 °F - 58.3 °F 58% 30.04 in 10.0 mi SSW 6.9 mph - N/A   Clear
8:35 PM 73.6 °F - 58.5 °F 59% 30.05 in 10.0 mi South 9.2 mph - N/A   Clear
8:55 PM 73.4 °F - 58.3 °F 59% 30.05 in 10.0 mi South 4.6 mph - N/A   Clear
9:15 PM 72.9 °F - 57.9 °F 59% 30.07 in 10.0 mi WNW 12.7 mph 19.6 mph N/A   Clear
9:35 PM 69.4 °F - 58.5 °F 68% 30.09 in 10.0 mi WNW 10.4 mph 16.1 mph N/A   Scattered Clouds
9:55 PM 68.0 °F - 58.3 °F 71% 30.09 in 10.0 mi WNW 11.5 mph 17.3 mph N/A   Clear
10:15 PM 67.3 °F - 57.2 °F 70% 30.10 in 10.0 mi WNW 8.1 mph 16.1 mph N/A   Clear
10:35 PM 67.1 °F - 56.7 °F 69% 30.09 in 10.0 mi West 3.5 mph - N/A   Scattered Clouds
10:55 PM 65.5 °F - 57.2 °F 75% 30.09 in 10.0 mi Calm Calm - N/A   Clear
11:15 PM 65.7 °F - 58.3 °F 77% 30.08 in 10.0 mi West 3.5 mph - N/A Rain Light Rain
11:35 PM 63.7 °F - 62.1 °F 94% 30.07 in 10.0 mi Calm Calm - N/A Rain Light Rain
11:55 PM 63.3 °F - 62.8 °F 98% 30.07 in 10.0 mi NNW 4.6 mph - 0.01 in Rain Light Rain